Change the Weather History Date:

Wednesday, May 8, 2013

  Actual Average Record
Temperature  
Mean Temperature 56 °F 62 °F  
Max Temperature 61 °F 74 °F 94 °F (1940)
Min Temperature 50 °F 51 °F 35 °F (1974)
Degree Days  
Heating Degree Days 9 4  
Month to date heating degree days 59 39  
Since 1 July heating degree days 3942 4071  
Cooling Degree Days 0 2  
Month to date cooling degree days 0 12  
Year to date cooling degree days 43 41  
Growing Degree Days 6 (Base 50)    
Moisture  
Dew Point 51 °F    
Average Humidity 84    
Maximum Humidity 96    
Minimum Humidity 72    
Precipitation  
Precipitation 0.35 in 0.12 in 1.43 in (1960)
Month to date precipitation 2.42 0.94  
Year to date precipitation 18.05 13.58  
Snow  
Snow 0.00 in - - ()
Month to date snowfall 0.0  
Since 1 July snowfall 18.3  
Snow Depth 0.00 in    
Sea Level Pressure  
Sea Level Pressure 29.99 in    
Wind  
Wind Speed 3 mph (SSW)    
Max Wind Speed 10 mph    
Max Gust Speed 12 mph    
Visibility 6 miles    
Events Rain    
T = Trace of Precipitation, MM = Missing Value Source: NWS Daily Summary

Daily Weather History Graph

Daily Weather History Graph

Search for Another Location

Airport or City:

Trip Planner

Search our weather history database for the weather conditions in past years. The results will help you decide how hot, cold, wet, or windy it might be!

Date:

Astronomy

May. 08, 2013 Rise Set
Actual Time 6:17 AM EDT 8:15 PM EDT
Civil Twilight 5:48 AM EDT 8:44 PM EDT
Nautical Twilight 5:13 AM EDT 9:19 PM EDT
Astronomical Twilight 4:36 AM EDT 9:57 PM EDT
Moon 5:22 AM EDT (5/8) 7:13 PM EDT (5/8)
Length of Visible Light 14h 55m
Length of Day
13h 58m
Waning Crescent, 2% of the Moon is Illuminated
May 8
Waning Crescent
May 9
New
May 18
First Quarter
May 25
Full
May 31
Last Quarter

Hourly Weather History & Observations

Time (EDT) Temp. Dew Point Humidity Pressure Visibility Wind Dir Wind Speed Gust Speed Precip Events Conditions
12:54 AM 51.1 °F 48.9 °F 92% 29.95 in 10.0 mi Calm Calm - N/A   Overcast
1:54 AM 51.1 °F 48.9 °F 92% 29.96 in 10.0 mi Calm Calm - N/A   Overcast
2:54 AM 50.0 °F 48.9 °F 96% 29.95 in 6.0 mi Calm Calm - N/A   Overcast
3:54 AM 51.1 °F 48.9 °F 92% 29.95 in 9.0 mi Calm Calm - N/A   Overcast
4:54 AM 51.1 °F 48.9 °F 92% 29.95 in 7.0 mi Calm Calm - N/A   Overcast
5:54 AM 51.1 °F 50.0 °F 96% 29.95 in 7.0 mi Calm Calm - N/A   Overcast
6:54 AM 51.1 °F 50.0 °F 96% 29.97 in 4.0 mi Calm Calm - N/A   Overcast
7:13 AM 51.8 °F 50.0 °F 94% 29.98 in 0.5 mi WSW 4.6 mph - N/A   Overcast
7:54 AM 52.0 °F 50.0 °F 93% 29.98 in 0.8 mi West 3.5 mph - N/A   Overcast
8:14 AM 51.8 °F 50.0 °F 94% 29.99 in 1.0 mi Calm Calm - 0.00 in Rain Light Rain
8:54 AM 52.0 °F 51.1 °F 97% 30.00 in 1.0 mi Calm Calm - 0.01 in Rain Light Rain
9:20 AM 53.6 °F 51.8 °F 94% 30.01 in 3.0 mi Calm Calm - 0.01 in Rain Light Rain
9:54 AM 53.1 °F 51.1 °F 93% 30.01 in 3.0 mi Calm Calm - 0.06 in Rain Light Rain
10:00 AM 53.6 °F 51.8 °F 94% 30.01 in 3.0 mi Calm Calm - 0.01 in Rain Rain
10:54 AM 54.0 °F 51.1 °F 90% 30.01 in 3.0 mi Calm Calm - 0.10 in Rain Light Rain
11:54 AM 54.0 °F 52.0 °F 93% 30.01 in 3.0 mi ESE 5.8 mph - 0.07 in Rain Light Rain
12:04 PM 53.6 °F 51.8 °F 94% 30.01 in 3.0 mi ESE 4.6 mph - 0.01 in Rain Light Rain
12:54 PM 55.0 °F 52.0 °F 89% 29.99 in 3.0 mi ESE 9.2 mph - 0.05 in Rain Light Rain
1:01 PM 55.4 °F 51.8 °F 88% 30.00 in 3.0 mi SE 6.9 mph - 0.00 in Rain Light Rain
1:18 PM 55.4 °F 51.8 °F 88% 29.99 in 9.0 mi ESE 5.8 mph - 0.00 in Rain Light Rain
1:50 PM 53.6 °F 50.0 °F 88% 30.00 in 2.5 mi ESE 5.8 mph - 0.04 in Rain Light Rain
1:54 PM 54.0 °F 51.1 °F 90% 29.99 in 2.5 mi East 4.6 mph - 0.04 in Rain Light Rain
2:54 PM 55.0 °F 51.1 °F 86% 29.99 in 10.0 mi SE 4.6 mph - 0.02 in   Overcast
3:54 PM 57.0 °F 51.1 °F 81% 29.98 in 10.0 mi Calm Calm - N/A   Overcast
4:54 PM 59.0 °F 50.0 °F 72% 29.98 in 10.0 mi Calm Calm - N/A   Mostly Cloudy
5:45 PM 60.8 °F 51.8 °F 72% 29.99 in 10.0 mi WNW 4.6 mph - N/A   Mostly Cloudy
5:54 PM 61.0 °F 52.0 °F 72% 29.98 in 10.0 mi West 6.9 mph - N/A   Scattered Clouds
6:54 PM 61.0 °F 52.0 °F 72% 29.97 in 10.0 mi West 4.6 mph - N/A   Partly Cloudy
7:54 PM 59.0 °F 52.0 °F 78% 29.99 in 10.0 mi Calm Calm - N/A   Partly Cloudy
8:54 PM 55.9 °F 52.0 °F 87% 30.00 in 10.0 mi WNW 4.6 mph - N/A   Clear
9:54 PM 54.0 °F 50.0 °F 86% 30.01 in 10.0 mi NNW 6.9 mph - N/A   Clear
10:54 PM 53.1 °F 50.0 °F 89% 30.02 in 10.0 mi NNW 4.6 mph - N/A   Clear
11:54 PM 52.0 °F 48.9 °F 89% 30.02 in 10.0 mi WNW 8.1 mph - N/A   Clear